DW4998 Weather Reports


time (UTC)temp
C
wind
direction
speed
KPH
gust
KPH
rain 1hr
cm
rain 24hr
cm
rain mn
cm
humidity
%
barometer
mb
20260506185028 11 184 4.8 8.0 0.33 1.24 1.24 92 1007.3
20260506184019 11 205 3.2 6.4 0.30 1.17 1.17 91 1007.1
20260506183041 11 151 4.8 9.7 0.25 1.09 1.09 91 1006.9
20260506182032 11 144 4.8 9.7 0.23 1.04 1.04 91 1006.9
20260506181023 11 142 3.2 6.4 0.20 0.99 0.99 91 1006.7
20260506180045 11 175 6.4 12.9 0.15 0.94 0.94 90 1006.5
20260506175037 12 142 3.2 9.7 0.15 0.89 0.89 89 1006.4
20260506174028 12 209 6.4 9.7 0.10 0.86 0.86 89 1006.3
20260506173019 12 167 6.4 12.9 0.08 0.84 0.84 87 1006.0
20260506172041 12 204 6.4 9.7 0.05 0.94 0.81 88 1006.0
20260506171032 12 174 4.8 11.3 0.05 1.07 0.79 88 1005.8
20260506170024 12 160 4.8 9.7 0.05 1.14 0.79 88 1006.0
20260506165046 12 216 4.8 11.3 0.03 1.14 0.76 87 1005.9
20260506164037 12 144 6.4 17.7 0.05 1.19 0.76 87 1006.0
20260506163029 12 141 3.2 8.0 0.08 1.22 0.76 87 1005.9
20260506162021 12 149 4.8 9.7 0.13 1.24 0.76 87 1005.9
20260506161043 12 159 4.8 8.0 0.23 1.22 0.74 88 1005.9
20260506160033 12 154 3.2 6.4 0.28 1.22 0.74 88 1006.0
20260506155025 12 152 4.8 8.0 0.36 1.22 0.74 89 1006.0
20260506154017 12 135 4.8 9.7 0.43 1.19 0.71 91 1006.0
20260506153038 12 135 4.8 8.0 0.48 1.17 0.69 92 1005.9
20260506152053 12 161 6.4 12.9 0.46 1.12 0.61 92 1006.0
20260506151019 12 189 6.4 12.9 0.36 1.02 0.51 91 1005.9
20260506150041 12 144 6.4 19.3 0.30 0.94 0.46 91 1005.6
20260506145032 12 130 9.7 16.1 0.23 0.86 0.38 91 1005.6
20260506144023 12 138 6.4 16.1 0.15 0.79 0.28 91 1005.6
20260506143046 12 133 6.4 14.5 0.10 0.69 0.20 90 1005.5
20260506142037 13 148 6.4 14.5 0.10 0.66 0.18 88 1005.4
20260506141048 13 155 8.0 16.1 0.15 0.66 0.15 86 1005.3
20260506140020 13 113 1.6 8.0 0.15 0.64 0.15 86 1005.3
20260506135042 13 150 4.8 12.9 0.15 0.64 0.15 89 1005.2
20260506134033 13 129 4.8 8.0 0.13 0.61 0.13 89 1005.1
20260506133025 13 189 4.8 9.7 0.10 0.58 0.10 87 1005.1
20260506132041 14 213 4.8 11.3 0.08 0.56 0.08 81 1005.0
20260506131059 16 215 8.0 22.5 0.00 0.51 0.00 70 1004.9
20260506130033 17 230 8.0 12.9 0.00 0.48 0.00 64 1004.5
20260506125100 17 256 6.4 11.3 0.00 0.48 0.00 60 1004.3
20260506124043 17 224 4.8 12.9 0.00 0.51 0.00 57 1004.4
20260506123101 18 238 4.8 11.3 0.00 0.51 0.00 55 1004.3
20260506122031 18 262 4.8 9.7 0.00 0.51 0.00 55 1004.3
20260506121024 17 215 6.4 9.7 0.00 0.53 0.00 58 1004.3
20260506120045 17 215 4.8 9.7 0.00 0.53 0.00 58 1004.4
20260506115024 17 277 6.4 9.7 0.00 0.00 0.00 57 1004.5
20260506114017 17 256 3.2 8.0 0.00 0.56 0.00 59 1004.4
20260506113039 17 294 4.8 8.0 0.00 0.56 0.00 60 1004.3
20260506112031 17 250 4.8 8.0 0.00 0.56 0.00 59 1004.5
20260506111023 17 268 3.2 9.7 0.00 0.56 0.00 61 1004.5
20260506110044 17 272 4.8 8.0 0.00 0.56 0.00 61 1004.6
20260506105036 17 279 3.2 8.0 0.00 0.56 0.00 63 1004.6
20260506104027 17 286 3.2 6.4 0.00 0.56 0.00 64 1004.7
20260506103038 17 267 3.2 9.7 0.00 0.56 0.00 63 1004.8
20260506102040 18 310 4.8 9.7 0.00 0.56 0.00 62 1004.7
20260506101032 17 333 3.2 9.7 0.00 0.56 0.00 65 1004.7
20260506100024 16 295 3.2 8.0 0.00 0.56 0.00 68 1004.8
20260506095045 16 238 6.4 11.3 0.00 0.56 0.00 67 1004.9
20260506094037 17 256 4.8 9.7 0.00 0.56 0.00 65 1004.8
20260506093028 16 314 4.8 8.0 0.00 0.56 0.00 68 1004.7
20260506092019 16 305 4.8 16.1 0.00 0.56 0.00 69 1004.7
20260506091041 17 300 6.4 9.7 0.00 0.56 0.00 67 1004.7
20260506090114 16 303 4.8 11.3 0.00 0.56 0.00 67 1004.6
20260506085025 17 249 6.4 12.9 0.00 0.56 0.00 63 1004.6
20260506084016 16 237 4.8 12.9 0.00 0.58 0.00 67 1004.6
20260506083038 16 224 4.8 11.3 0.00 0.58 0.00 67 1004.6
20260506082029 16 244 6.4 11.3 0.00 0.61 0.00 67 1004.6
20260506081020 16 254 6.4 11.3 0.00 0.61 0.00 68 1004.5
20260506073017 15 271 4.8 6.4 0.00 0.66 0.00 71 1004.4
20260506072038 15 265 3.2 8.0 0.00 0.66 0.00 71 1004.4
20260506071030 15 221 4.8 9.7 0.00 0.66 0.00 71 1004.3
20260506062017 14 260 3.2 8.0 0.00 0.66 0.00 74 1004.5
20260506061039 14 231 3.2 9.7 0.00 0.66 0.00 75 1004.5
20260506051019 12 237 3.2 6.4 0.00 0.66 0.00 82 1004.9
20260506045032 11 228 3.2 4.8 0.00 0.66 0.00 84 1004.9
20260506044024 11 221 3.2 8.0 0.00 0.66 0.00 86 1004.9
20260506043046 11 196 3.2 6.4 0.00 0.66 0.00 86 1005.0
20260506042037 11 226 3.2 6.4 0.00 0.66 0.00 85 1004.9
20260506041029 11 210 1.6 4.8 0.00 0.66 0.00 85 1004.9
20260506040020 12 228 4.8 6.4 0.00 0.66 0.00 83 1004.8
20260506035103 12 179 3.2 4.8 0.00 0.66 0.00 82 1004.9
20260506034034 12 217 4.8 8.0 0.00 0.66 0.00 81 1004.8
20260506033046 12 156 3.2 6.4 0.00 0.66 0.00 81 1004.9
20260506032018 12 200 3.2 6.4 0.00 0.66 0.00 80 1004.9
20260506031040 12 192 1.6 6.4 0.00 0.66 0.00 80 1005.1
20260506030032 12 354 3.2 6.4 0.00 0.66 0.00 81 1005.2
20260506025024 13 241 1.6 6.4 0.00 0.66 0.00 80 1005.3
20260506024045 13 238 1.6 6.4 0.00 0.66 0.00 80 1005.5
20260506023037 13 238 3.2 6.4 0.00 0.66 0.00 78 1005.5
20260506022029 13 259 4.8 8.0 0.00 0.66 0.00 77 1005.6
20260506021041 13 2 3.2 6.4 0.00 0.66 0.00 78 1005.7
20260506015034 13 160 3.2 6.4 0.00 0.66 0.00 76 1005.5
20260506014026 13 204 3.2 9.7 0.00 0.66 0.00 77 1005.4
20260506013038 13 165 4.8 9.7 0.00 0.66 0.00 77 1005.5
20260506012040 13 144 4.8 11.3 0.00 0.66 0.00 78 1005.5
20260506011031 13 157 8.0 11.3 0.00 0.66 0.00 79 1005.6
20260506010023 13 156 4.8 8.0 0.00 0.66 0.00 78 1005.6
20260506005046 13 30 4.8 9.7 0.00 0.66 0.00 80 1005.7
20260506004037 13 113 4.8 8.0 0.00 0.66 0.00 79 1005.8
20260506003029 13 175 3.2 8.0 0.00 0.66 0.00 81 1006.1
20260506002021 13 173 4.8 9.7 0.00 0.66 0.00 83 1006.2
20260506001043 13 226 1.6 8.0 0.00 0.66 0.00 83 1006.2
20260506000052 13 181 4.8 8.0 0.00 0.66 0.00 81 1006.2
20260505235012 13 241 4.8 6.4 0.00 0.00 0.00 80 1006.2
20260505234037 13 56 3.2 6.4 0.00 0.66 0.00 80 1006.2
20260505233054 14 36 4.8 8.0 0.00 0.66 0.00 81 1006.3
20260505232045 14 164 3.2 8.0 0.00 0.66 0.00 82 1006.3
20260505231017 14 144 4.8 8.0 0.00 0.66 0.00 83 1006.5
20260505230039 13 123 3.2 6.4 0.00 0.66 0.00 83 1006.7
20260505225030 13 156 1.6 6.4 0.00 0.66 0.00 83 1006.7
20260505224022 13 198 1.6 4.8 0.00 0.66 0.00 83 1006.7
20260505223044 13 148 3.2 6.4 0.00 0.66 0.00 82 1006.8
20260505222056 13 125 3.2 6.4 0.00 0.66 0.00 83 1006.7
20260505221028 13 238 3.2 8.0 0.00 0.66 0.00 82 1006.7
20260505220019 13 110 3.2 8.0 0.00 0.66 0.00 83 1006.7
20260505215042 13 90 1.6 6.4 0.00 0.66 0.66 84 1006.6
20260505214034 13 209 1.6 6.4 0.00 0.66 0.66 85 1006.6
20260505213026 13 148 1.6 8.0 0.00 0.66 0.66 87 1006.5
20260505212037 13 147 1.6 6.4 0.00 0.66 0.66 87 1006.6
20260505211039 13 142 3.2 4.8 0.00 0.66 0.66 86 1006.5
20260505210031 13 143 1.6 4.8 0.00 0.66 0.66 87 1006.6
20260505205022 14 65 0.0 3.2 0.00 0.66 0.66 86 1006.5
20260505204105 14 121 1.6 4.8 0.00 0.66 0.66 87 1006.3
20260505203035 14 134 1.6 4.8 0.00 0.66 0.66 87 1006.3
20260505202026 14 135 1.6 6.4 0.00 0.66 0.66 86 1006.3
20260505201017 14 129 3.2 8.0 0.00 0.66 0.66 86 1006.3
20260505200039 14 128 3.2 9.7 0.00 0.66 0.66 86 1006.3
20260505195030 13 138 1.6 4.8 0.00 0.66 0.66 88 1006.1
20260505194022 14 228 1.6 3.2 0.00 0.66 0.66 87 1006.1
20260505193044 13 147 3.2 4.8 0.00 0.66 0.66 88 1006.0
20260505192036 13 132 1.6 4.8 0.00 0.66 0.66 89 1006.0
20260505191028 14 143 1.6 3.2 0.00 0.66 0.66 89 1006.1
20260505190038 14 168 1.6 3.2 0.00 0.66 0.66 89 1005.9